Location: Puketoi
(40.5833°S, 176.0167°E)
Time: 10:11:20
(UTC+00:00)

NOAA 12 - Visible Passes

Search period start: 28 September 2023 00:00
Search period end: 08 October 2023 00:00
Orbit: 794 x 815 km, 98.5° (Epoch: 27 September)

Date Brightness Start Highest point End Pass type
(mag) Time Alt. Az. Time Alt. Az. Time Alt. Az.
28 Sep 6.3 15:49:12 10° ENE 15:53:37 27° ESE 15:58:05 10° S visible
29 Sep 7.3 07:24:54 10° SSW 07:27:28 14° WSW 07:30:01 10° W visible
29 Sep 7.0 15:25:19 10° E 15:28:37 17° ESE 15:31:56 10° SSE visible
29 Sep 4.1 17:02:28 10° N 17:07:47 68° WNW 17:13:11 10° SSW visible
30 Sep 6.9 06:58:27 10° SSW 07:02:31 22° WSW 07:06:30 10° WNW visible
30 Sep 4.4 16:37:11 10° NNE 16:42:30 72° ESE 16:47:54 10° S visible
01 Oct 5.4 16:12:17 10° NE 16:17:19 43° ESE 16:22:24 10° S visible
02 Oct 6.3 15:47:50 10° ENE 15:52:13 26° ESE 15:56:38 10° S visible
03 Oct 7.3 07:23:25 10° SSW 07:26:04 14° WSW 07:28:42 10° W visible
03 Oct 7.0 15:23:59 10° E 15:27:13 16° ESE 15:30:28 10° SSE visible
03 Oct 4.1 17:01:03 10° N 17:06:22 70° WNW 17:11:47 10° SSW visible
04 Oct 6.9 06:57:01 10° SSW 07:01:06 23° WSW 07:05:08 10° WNW visible
04 Oct 4.5 16:35:46 10° NNE 16:41:05 70° ESE 16:46:29 10° S visible
05 Oct 5.5 16:10:54 10° NE 16:15:55 42° ESE 16:20:57 10° S visible
06 Oct 6.4 15:46:28 10° ENE 15:50:49 26° ESE 15:55:10 10° S visible
07 Oct 7.3 07:21:55 10° SSW 07:24:39 14° WSW 07:27:21 10° W visible
07 Oct 7.1 15:22:40 10° E 15:25:49 16° ESE 15:28:59 10° SSE visible
07 Oct 4.1 16:59:36 10° N 17:04:57 72° WNW 17:10:22 10° SSW visible
